Location: Unspecified
(0.0000°N, 0.0000°E)
Time: 03:03:39
(UTC+02:00)

ATLAS V CENTAUR R/B - Visible Passes

Search period start: 31 July 2015 00:00
Search period end: 10 August 2015 00:00
Orbit: 244 x 29346 km, 18.1° (Epoch: 29 July)

Date Brightness Start Highest point End Pass type
(mag) Time Alt. Az. Time Alt. Az. Time Alt. Az.
31 Jul 6.3 21:56:35 10° WNW 05:16:23 38° S 05:21:44 10° ESE visible
01 Aug 7.1 14:12:32 10° NW 14:21:18 42° NNE 21:27:11 20° ESE visible
02 Aug 5.1 06:49:26 20° SW 06:55:04 30° S 06:58:34 10° ESE visible
02 Aug 8.2 15:49:56 10° WNW 16:09:10 56° NNE 23:00:21 47° ESE visible
03 Aug 9.3 17:28:33 10° WNW 18:24:17 72° NNE 00:33:23 68° SSE visible
04 Aug 9.4 19:09:50 10° WNW 02:06:19 55° SW 02:06:19 55° SW visible
05 Aug 6.7 20:57:40 10° WNW 04:29:30 24° SE 04:31:50 10° ESE visible
06 Aug 6.6 13:22:31 10° NW 13:29:09 36° NNE 20:39:03 10° ESE visible
06 Aug 5.6 23:12:46 10° W 06:03:32 37° S 06:08:16 10° ESE visible
07 Aug 7.7 14:58:57 10° NW 15:12:57 51° NNE 22:13:59 34° ESE visible
08 Aug 3.6 07:35:55 10° WSW 07:42:11 36° S 07:44:22 10° ESE visible
08 Aug 8.8 16:36:14 10° WNW 17:09:30 66° NNE 23:46:30 59° SE visible
